| time (UTC) | temp F | wind direction | speed MPH | gust MPH | rain 1hr in | rain 24hr in | rain mn in | humidity % | barometer mb |
| 20260504183028 | 69 | 30 | 9.0 | 22.0 | 0.00 | 0.00 | 0.00 | 37 | 1007.8 |
| 20260504181534 | 70 | 11 | 12.0 | 17.0 | 0.00 | 0.00 | 0.00 | 39 | 1007.9 |
| 20260504180030 | 70 | 42 | 8.0 | 19.0 | 0.00 | 0.00 | 0.00 | 40 | 1008.2 |
| 20260504174527 | 69 | 43 | 12.0 | 20.0 | 0.00 | 0.00 | 0.00 | 39 | 1008.3 |
| 20260504173030 | 68 | 340 | 12.0 | 27.0 | 0.00 | 0.00 | 0.00 | 40 | 1008.3 |
| 20260504171530 | 68 | 32 | 9.0 | 21.0 | 0.00 | 0.00 | 0.00 | 41 | 1008.7 |
| 20260504081527 | 47 | 114 | 1.0 | 12.0 | 0.00 | 0.00 | 0.00 | 51 | 1011.7 |
| 20260504044526 | 49 | 360 | 6.0 | 11.0 | 0.00 | 0.00 | 0.00 | 48 | 1012.6 |
| 20260504043030 | 50 | 24 | 6.0 | 11.0 | 0.00 | 0.00 | 0.00 | 47 | 1012.4 |
| 20260504041533 | 50 | 16 | 5.0 | 13.0 | 0.00 | 0.00 | 0.00 | 47 | 1012.4 |
| 20260504040030 | 50 | 28 | 4.0 | 10.0 | 0.00 | 0.00 | 0.00 | 48 | 1012.4 |
| 20260504034529 | 49 | 5 | 5.0 | 9.0 | 0.00 | 0.00 | 0.00 | 48 | 1012.4 |
| 20260504033027 | 50 | 32 | 4.0 | 11.0 | 0.00 | 0.00 | 0.00 | 47 | 1012.3 |
| 20260504031526 | 50 | 18 | 4.0 | 11.0 | 0.00 | 0.00 | 0.00 | 47 | 1012.3 |
| 20260504030028 | 50 | 47 | 5.0 | 9.0 | 0.00 | 0.00 | 0.00 | 47 | 1012.3 |
| 20260504024530 | 50 | 5 | 4.0 | 9.0 | 0.00 | 0.00 | 0.00 | 46 | 1012.4 |
| 20260504023028 | 50 | 19 | 4.0 | 8.0 | 0.00 | 0.00 | 0.00 | 46 | 1012.4 |
| 20260504021527 | 51 | 17 | 3.0 | 8.0 | 0.00 | 0.00 | 0.00 | 46 | 1012.4 |
| 20260504020028 | 50 | 35 | 6.0 | 13.0 | 0.00 | 0.00 | 0.00 | 46 | 1012.3 |
| 20260504014528 | 50 | 17 | 2.0 | 6.0 | 0.00 | 0.00 | 0.00 | 47 | 1012.3 |
| 20260504013026 | 50 | 59 | 1.0 | 3.0 | 0.00 | 0.00 | 0.00 | 47 | 1012.2 |
| 20260504011526 | 50 | 38 | 2.0 | 5.0 | 0.00 | 0.00 | 0.00 | 48 | 1012.2 |
| 20260504010027 | 50 | 31 | 1.0 | 8.0 | 0.00 | 0.00 | 0.00 | 46 | 1012.1 |
| 20260504004530 | 51 | 0 | 1.0 | 4.0 | 0.00 | 0.00 | 0.00 | 46 | 1012.0 |
| 20260504003032 | 52 | 31 | 1.0 | 5.0 | 0.00 | 0.00 | 0.00 | 45 | 1011.9 |
| 20260504001531 | 52 | 27 | 3.0 | 8.0 | 0.00 | 0.00 | 0.00 | 44 | 1011.8 |
| 20260504000030 | 53 | 44 | 5.0 | 11.0 | 0.00 | 0.00 | 0.00 | 42 | 1011.8 |
| 20260503234532 | 54 | 44 | 6.0 | 13.0 | 0.00 | 0.00 | 0.00 | 40 | 1011.7 |
| 20260503233037 | 55 | 55 | 7.0 | 13.0 | 0.00 | 0.00 | 0.00 | 39 | 1011.6 |
| 20260503231533 | 55 | 76 | 10.0 | 18.0 | 0.00 | 0.00 | 0.00 | 38 | 1011.6 |
| 20260503230030 | 56 | 58 | 7.0 | 16.0 | 0.00 | 0.00 | 0.00 | 39 | 1011.5 |
| 20260503224528 | 55 | 61 | 6.0 | 15.0 | 0.00 | 0.00 | 0.00 | 40 | 1011.7 |
| 20260503223028 | 55 | 65 | 10.0 | 18.0 | 0.00 | 0.00 | 0.00 | 39 | 1011.6 |
| 20260503221534 | 55 | 34 | 9.0 | 16.0 | 0.00 | 0.00 | 0.00 | 41 | 1011.7 |
| 20260503220028 | 57 | 49 | 12.0 | 19.0 | 0.00 | 0.00 | 0.00 | 36 | 1011.7 |
| 20260503214526 | 56 | 96 | 12.0 | 21.0 | 0.00 | 0.00 | 0.00 | 38 | 1011.7 |
| 20260503213033 | 55 | 67 | 6.0 | 20.0 | 0.00 | 0.00 | 0.00 | 39 | 1011.6 |
| 20260503211530 | 55 | 92 | 10.0 | 17.0 | 0.00 | 0.00 | 0.00 | 37 | 1011.5 |
| 20260503210027 | 56 | 106 | 11.0 | 22.0 | 0.00 | 0.00 | 0.00 | 37 | 1011.6 |
| 20260503204530 | 55 | 39 | 9.0 | 20.0 | 0.00 | 0.00 | 0.00 | 38 | 1011.6 |
| 20260503203031 | 56 | 46 | 9.0 | 19.0 | 0.00 | 0.00 | 0.00 | 41 | 1011.6 |
| 20260503201527 | 56 | 92 | 11.0 | 23.0 | 0.00 | 0.00 | 0.00 | 38 | 1011.8 |
| 20260503200029 | 56 | 54 | 10.0 | 18.0 | 0.00 | 0.00 | 0.00 | 38 | 1011.9 |
| 20260503194530 | 55 | 65 | 9.0 | 18.0 | 0.00 | 0.00 | 0.00 | 40 | 1012.1 |
| 20260503193030 | 55 | 86 | 12.0 | 20.0 | 0.00 | 0.00 | 0.00 | 39 | 1012.2 |
| 20260503191534 | 54 | 71 | 9.0 | 16.0 | 0.00 | 0.00 | 0.00 | 42 | 1012.4 |
| 20260503190030 | 55 | 11 | 11.0 | 20.0 | 0.00 | 0.00 | 0.00 | 41 | 1012.5 |
| 20260503184528 | 55 | 40 | 12.0 | 19.0 | 0.00 | 0.00 | 0.00 | 41 | 1012.7 |